Home > Weather > Canberra > Past weeks

Flag for Australia Weather for the Past 2 Weeks in Canberra, Australian Capital Territory, Australia

Now
52 °F

Partly cloudy.


Feels Like: 52 °F
Forecast: 53 / 67 °F
Wind: 1 mph from Northwest

Location: Canberra Airport

Current Time: May 1, 2016 at 1:30:59 AM

Latest Report: May 1, 2016 at 1:00 AM


Visibility: N/A

Pressure: 29.98 "Hg (27.97 "Hg at 577m altitude)

Humidity: 100%

Dew Point: 52 °F

Location of CanberraLocation

Historic Weather in Canberra — Graph

°F

Canberra Temperature Yesterday

Maximum temperature yesterday: 73 °F (at 3:00 PM)
Minimum temperature yesterday: 52 °F (at 11:00 PM)
Average temperature yesterday: 63 °F

High & Low Weather Summary for the Past Weeks

 TemperatureHumidityPressure
High77 °F (Apr 20, 3:00 PM)100% (Apr 16, 10:00 PM)30.51 "Hg (Apr 16, 10:00 PM)
Low36 °F (Apr 26, 5:00 AM)18% (Apr 26, 4:00 PM)29.98 "Hg (May 1, 12:02 AM)
Average57 °F72%30.24 "Hg
* Reported Midnight between Apr 15 and Apr 16 — May 1 12:02 AM, Canberra, Weather by CustomWeather, © 2016

Note: Actual official high and low records may vary slightly from our data, if they occured in-between our weather recording intervals... More about our weather records

Advertising

Canberra Weather History for the Previous 24 Hours

Scroll right to see more
 ConditionsComfort  
Time TempWeatherWind HumidityBarometerVisibility
12:02 AM
Sun, May 1
50 °FPartly cloudy.No wind100%29.98 "HgN/A
11:00 PM
Sat, Apr 30
52 °FClear.5 mph94%30.04 "HgN/A
10:00 PM57 °FClear.6 mph88%30.04 "HgN/A
9:30 PM57 °FClear.5 mph88%30.04 "HgN/A
9:00 PM55 °FClear.3 mph94%30.04 "HgN/A
8:30 PM59 °FClear.6 mph82%30.04 "HgN/A
8:00 PM59 °FClear.7 mph82%30.04 "HgN/A
7:30 PM61 °FClear.9 mph77%30.04 "HgN/A
7:00 PM63 °FClear.12 mph77%30.04 "HgN/A
6:30 PM64 °FClear.13 mph73%30.04 "HgN/A
6:00 PM64 °FPassing clouds.13 mph73%30.04 "HgN/A
5:00 PM66 °FPassing clouds.9 mph68%30.04 "HgN/A
4:00 PM70 °FScattered clouds.14 mph57%30.04 "HgN/A
3:00 PM73 °FScattered clouds.15 mph50%30.04 "HgN/A
2:00 PM72 °FScattered clouds.13 mph57%30.04 "HgN/A
1:30 PM72 °FScattered clouds.10 mph57%30.04 "HgN/A
1:00 PM70 °FBroken clouds.13 mph57%30.04 "HgN/A
12:30 PM70 °FBroken clouds.9 mph60%30.07 "HgN/A
12:00 PM68 °FBroken clouds.10 mph69%30.07 "HgN/A
11:30 AM68 °FBroken clouds.12 mph69%30.09 "HgN/A
11:00 AM66 °FBroken clouds.10 mph78%30.09 "HgN/A
10:30 AM66 °FBroken clouds.10 mph78%30.12 "HgN/A
9:30 AM63 °FSprinkles. Partly sunny.12 mph88%30.12 "HgN/A
9:00 AM61 °FPartly sunny.12 mph94%30.12 "HgN/A
8:00 AM61 °FSprinkles. Partly sunny.9 mph94%30.12 "HgN/A
7:00 AM61 °FPartly sunny.12 mph88%30.09 "HgN/A
6:30 AM61 °FPartly sunny.13 mph88%30.07 "HgN/A
6:00 AM61 °FPartly sunny.12 mph94%30.09 "HgN/A
5:30 AM61 °FOvercast.12 mph94%30.07 "HgN/A
5:00 AM61 °FPassing clouds.8 mph94%30.07 "HgN/A
4:00 AM61 °FSprinkles. Overcast.7 mph94%30.07 "HgN/A
3:00 AM61 °FSprinkles. Mostly cloudy.12 mph94%30.07 "HgN/A
2:30 AM61 °FLight rain. Mostly cloudy.10 mph94%30.07 "HgN/A
2:00 AM61 °FSprinkles. Mostly cloudy.13 mph94%30.07 "HgN/A
1:30 AM61 °FSprinkles. Overcast.10 mph94%30.09 "HgN/A
1:00 AM61 °FLight rain. Mostly cloudy.10 mph94%30.09 "HgN/A
Weather by CustomWeather, © 2016

See weather overviewHow to use our weather pages